This is the latest recevied weather packets stored in our database for station/object N5TDX. If no packets are shown the sender has not sent any weather packets the latest 1 day(s).
| Time | Temp. | Humidity | Pressure | Rain* | Wind** | Luminosity | Snow |
|---|---|---|---|---|---|---|---|
| 1778042611 | 17.78° C | 71% | 1007 hPa | 0 mm | 0.45 m/s, 82° | - | - |
| 1778042308 | 17.78° C | 72% | 1006.6 hPa | 0 mm | 0 m/s | - | - |
| 1778042005 | 18.33° C | 71% | 1006.8 hPa | 0 mm | 0.45 m/s, 1° | - | - |
| 1778041703 | 18.33° C | 71% | 1006.8 hPa | 0 mm | 0.45 m/s, 324° | - | - |
| 1778041402 | 18.33° C | 71% | 1006.8 hPa | 0 mm | 0.45 m/s, 68° | - | - |
| 1778041101 | 18.33° C | 71% | 1006.9 hPa | 0 mm | 0.45 m/s, 317° | - | - |
| 1778040797 | 18.89° C | 71% | 1007.1 hPa | 0 mm | 0.89 m/s, 95° | - | - |
| 1778040494 | 18.89° C | 70% | 1006.9 hPa | 0 mm | 0 m/s | - | - |
| 1778040192 | 19.44° C | 70% | 1006.9 hPa | 0 mm | 0.45 m/s, 18° | - | - |
| 1778039888 | 19.44° C | 69% | 1006.7 hPa | 0 mm | 0.45 m/s, 29° | - | - |
| 1778039585 | 19.44° C | 69% | 1006.7 hPa | 0 mm | 0.45 m/s, 295° | - | - |
| 1778039282 | 19.44° C | 69% | 1006.3 hPa | 0 mm | 0.45 m/s, 44° | - | - |
| 1778038979 | 19.44° C | 69% | 1006.3 hPa | 0 mm | 0.89 m/s, 336° | - | - |
| 1778038676 | 19.44° C | 68% | 1006.1 hPa | 0 mm | 1.79 m/s, 52° | - | - |
| 1778038373 | 19.44° C | 68% | 1006 hPa | 0 mm | 1.34 m/s, 50° | - | - |
| 1778038070 | 19.44° C | 68% | 1005.9 hPa | 0 mm | 1.34 m/s, 32° | - | - |
| 1778037767 | 20° C | 67% | 1006 hPa | 0 mm | 0.89 m/s, 338° | - | - |
| 1778037463 | 20° C | 67% | 1005.8 hPa | 0 mm | 0.45 m/s, 11° | - | - |
| 1778037161 | 20° C | 67% | 1005.3 hPa | 0 mm | 0.45 m/s, 339° | - | - |
| 1778036859 | 20° C | 66% | 1005.7 hPa | 0 mm | 0.89 m/s, 344° | - | - |
| 1778036556 | 20° C | 67% | 1005.3 hPa | 0 mm | 0.89 m/s, 87° | - | - |
| 1778036253 | 20° C | 67% | 1005.3 hPa | 0 mm | 0 m/s | - | - |
| 1778035950 | 20.56° C | 66% | 1005.2 hPa | 0 mm | 0.45 m/s, 302° | - | - |
| 1778035646 | 20.56° C | 66% | 1005 hPa | 0 mm | 0.45 m/s, 90° | - | - |
| 1778035343 | 20.56° C | 66% | 1005.2 hPa | 0 mm | 0.45 m/s, 24° | - | - |
* Rain latest hour (hover to see other rain measurements)
** Current wind speed in m/s (hover to see current wind gust speed)